{"data":{"norad_id":53485,"intl_designator":"2022-099W","name":"STARLINK-4430","alt_names":[],"object_type":"PAYLOAD","status":"ACTIVE","operator":null,"country":"US","launch_date":"2022-08-12","launch_site_code":"AFWTR","launch_vehicle":null,"mission":null,"orbit_class":"UNKNOWN","rcs_meters":null,"size_class":null,"mass_kg":null,"dimensions":null,"purposes":["comms"],"wikipedia_slug":null,"has_3d_model":false,"image_url":null,"decayed_at":null,"tle_current":{"epoch":"2026-05-25T02:13:06.313152Z","epoch_age_seconds":66821,"freshness":"FRESH","line1":"1 53485U 22099W   26145.09243418  .00000838  00000+0  62100-4 0  9997","line2":"2 53485  97.4493 265.0642 0001553 158.7097 201.4195 15.05651740207475","mean_motion":15.0565174,"eccentricity":0.0001553,"inclination_deg":97.4493,"raan_deg":265.0642,"arg_perigee_deg":158.7097,"mean_anomaly_deg":201.4195,"bstar":6.21e-5,"rev_number":20747,"period_min":95.639646389941,"perigee_km":548.42995383731,"apogee_km":550.5816796962,"semimajor_km":6927.6428167668,"source":"CELESTRAK","updated_at":"2026-05-25T13:38:17.433670Z"}}}